Flag for Switzerland Weather past 2 weeks in Grenchen, Solothurn, Switzerland

Now
51 °F

Cool.


Feels Like: 46 °F
Forecast: 32 / 42 °F
Wind: 13 mph from Southwest

Location: Grenchen

Current Time: Mar 3, 2015 at 4:18:29 PM

Latest Report: Mar 3, 2015 at 3:00 PM


Visibility: N/A

Pressure: 30.20 "Hg

Humidity: 59%

Dew point: 37 °F

Location of GrenchenLocation

Historic Weather in Grenchen — Graph

°F

Grenchen temperature yesterday

Maximum temperature yesterday: 50 °F (at 10:00 AM)
Minimum temperature yesterday: 41 °F (at 11:00 PM)
Average temperature yesterday: 46 °F

Past Weeks' High & Low Weather Summary

 TemperatureHumidityPressure
High51 °F (Mar 3, 3:00 PM)100% (Feb 17, 8:00 AM)30.75 "Hg (Feb 17, 8:00 AM)
Low25 °F (Feb 20, 6:00 AM)43% (Feb 26, 4:00 PM)29.63 "Hg (Feb 21, 9:00 AM)
Average36 °F88%30.11 "Hg
* Reported Feb 16 3:00 PM — Mar 3 3:00 PM, Grenchen, Weather by CustomWeather, © 2015

Note: Actual official high and low records may vary slightly from our data, if they occured in-between our weather recording intervals... More about our weather records

Advertising

Grenchen weather history for previous 24 hours

 ConditionsComfort  
Time TempWeatherWind HumidityBarometerVisibility
3:00 PM
Tue, Mar 3
51 °FCool.13 mph59%30.20 "HgN/A
2:00 PM49 °FCool.8 mph60%30.22 "HgN/A
1:00 PM48 °FCool.8 mph61%30.24 "HgN/A
12:00 PM46 °FCool.3 mph60%30.27 "HgN/A
11:00 AM45 °FQuite cool.1 mph63%30.28 "HgN/A
10:00 AM42 °FQuite cool.1 mph67%30.29 "HgN/A
9:00 AM38 °FChilly.3 mph82%30.31 "HgN/A
8:00 AM34 °FChilly.2 mph87%30.31 "HgN/A
7:00 AM33 °FChilly.2 mph91%30.31 "HgN/A
6:00 AM36 °FChilly.3 mph79%30.29 "HgN/A
5:00 AM38 °FChilly.9 mph70%30.28 "HgN/A
4:00 AM38 °FChilly.8 mph69%30.28 "HgN/A
3:00 AM38 °FChilly.8 mph68%30.29 "HgN/A
2:00 AM37 °FChilly.6 mph73%30.29 "HgN/A
1:00 AM36 °FChilly.3 mph81%30.29 "HgN/A
12:00 AM39 °FChilly.3 mph71%30.27 "HgN/A
11:00 PM
Mon, Mar 2
41 °FQuite cool.8 mph62%30.25 "HgN/A
10:00 PM42 °FQuite cool.12 mph61%30.21 "HgN/A
9:00 PM43 °FQuite cool.12 mph66%30.16 "HgN/A
8:00 PM44 °FQuite cool.20 mph67%30.12 "HgN/A
7:00 PM43 °FQuite cool.18 mph78%30.09 "HgN/A
6:00 PM46 °FCool.17 mph67%30.04 "HgN/A
5:00 PM46 °FCool.28 mph62%30.00 "HgN/A
4:00 PM48 °FCool.23 mph61%29.98 "HgN/A
Weather by CustomWeather, © 2015

See weather overviewHow to use our weather pages